Location: Cran-Gévrier
(45.9039°N, 6.1012°E)
Time: 10:18:23
(UTC+00:00)

Cosmos 1980 - Pass Details

Date: 09 February 2023
Orbit: 838 x 847 km, 71.0° (Epoch: 31 March)

Event Time Altitude Azimuth Distance (km) Brightness Sun altitude
Rises 18:35:26 0° 188° (S) 3,375 7.0 -18.3°
Reaches altitude 10° 18:37:56 10° 183° (S) 2,445 6.2 -18.7°
Maximum altitude 18:43:19 50° 109° (ESE) 1,055 3.8 -19.7°
Enters shadow 18:45:43 31° 52° (NE) 1,445 4.5 -20.1°
